Chadron, NE

9:19 PM MDT on May 24, 2018 (GMT -0600)
Chadron Municipal

Weather History for KCDR - July, 2013

Change the Weather History Date:

Wednesday, July 17, 2013

  Actual Average Record
Temperature  
Mean Temperature 79 °F 74 °F  
Max Temperature 94 °F 90 °F 108 °F (2003)
Min Temperature 64 °F 58 °F 46 °F (1982)
Degree Days  
Heating Degree Days 0 0  
Month to date heating degree days 0 5  
Since 1 June heating degree days 58 86  
Since 1 July heating degree days 0 5  
Cooling Degree Days 14 9  
Month to date cooling degree days 194 137  
Year to date cooling degree days 334 265  
Since 1 June cooling degree days 306 245  
Growing Degree Days 28 (Base 50)    
Moisture  
Dew Point 57 °F    
Average Humidity 54    
Maximum Humidity 84    
Minimum Humidity 24    
Precipitation  
Precipitation 0.00 in 0.06 in 1.66 in (1928)
Month to date precipitation 1.10 1.22  
Year to date precipitation 9.94 11.40  
Sea Level Pressure  
Sea Level Pressure 30.06 in    
Wind  
Wind Speed 17 mph (South)    
Max Wind Speed 28 mph    
Max Gust Speed 37 mph    
Visibility 10 miles    
Events      
T = Trace of Precipitation, MM = Missing Value Source: NWS Daily Summary

Daily Weather History Graph

Daily Weather History Graph

Search for Another Location

Airport or City:

Astronomy

Jul. 17, 2013 Rise Set
Actual Time 5:29 AM MDT 8:27 PM MDT
Civil Twilight 4:55 AM MDT 9:00 PM MDT
Nautical Twilight 4:12 AM MDT 9:43 PM MDT
Astronomical Twilight 3:22 AM MDT 10:33 PM MDT
Moon 3:17 PM MDT (7/17) 12:40 AM MDT (7/17)
Length of Visible Light 16h 05m
Length of Day
14h 57m
Waxing Gibbous, 68% of the Moon is Illuminated
Jul 17
Waxing Gibbous
Jul 22
Full
Jul 29
Last Quarter
Aug 6
New
Aug 14
First Quarter

Hourly Weather History & Observations

Time (MDT) Temp. Heat Index Dew Point Humidity Pressure Visibility Wind Dir Wind Speed Gust Speed Precip Events Conditions
12:53 AM 73.0 °F - 59.0 °F 61% 30.11 in 10.0 mi South 20.7 mph - N/A   Clear
1:53 AM 72.0 °F - 59.0 °F 64% 30.10 in 10.0 mi South 21.9 mph 31.1 mph N/A   Clear
2:53 AM 71.1 °F - 59.0 °F 66% 30.10 in 10.0 mi South 19.6 mph 28.8 mph N/A   Clear
3:53 AM 69.1 °F - 59.0 °F 70% 30.11 in 10.0 mi South 16.1 mph - N/A   Clear
4:53 AM 66.0 °F - 59.0 °F 78% 30.12 in 10.0 mi SSW 8.1 mph - N/A   Clear
5:53 AM 64.9 °F - 59.0 °F 81% 30.14 in 10.0 mi South 10.4 mph - N/A   Clear
6:53 AM 66.9 °F - 60.1 °F 79% 30.15 in 10.0 mi South 9.2 mph - N/A   Clear
7:53 AM 71.1 °F - 61.0 °F 70% 30.15 in 10.0 mi South 11.5 mph - N/A   Clear
8:53 AM 75.9 °F - 61.0 °F 60% 30.14 in 10.0 mi SSW 12.7 mph - N/A   Clear
9:53 AM 79.0 °F - 61.0 °F 54% 30.13 in 10.0 mi South 10.4 mph - N/A   Clear
10:53 AM 82.9 °F 82.8 °F 59.0 °F 44% 30.12 in 10.0 mi South 11.5 mph 19.6 mph N/A   Clear
11:37 AM 84.2 °F 83.8 °F 59.0 °F 42% 30.19 in 1.8 mi SSE 13.8 mph 21.9 mph N/A   Haze
11:51 AM 84.2 °F 83.5 °F 57.2 °F 40% 30.18 in 10.0 mi South 12.7 mph 23.0 mph N/A   Clear
11:53 AM 84.0 °F 83.5 °F 57.9 °F 41% 30.10 in 10.0 mi SSE 13.8 mph 23.0 mph N/A   Clear
12:53 PM 88.0 °F 86.7 °F 57.0 °F 35% 30.07 in 10.0 mi South 13.8 mph 23.0 mph N/A   Clear
1:53 PM 90.0 °F 88.1 °F 55.9 °F 31% 30.05 in 10.0 mi South 20.7 mph 29.9 mph N/A   Clear
2:53 PM 91.0 °F 89.2 °F 55.9 °F 30% 30.02 in 10.0 mi South 18.4 mph 26.5 mph N/A   Clear
3:53 PM 93.0 °F 90.6 °F 53.1 °F 26% 30.00 in 10.0 mi SSW 17.3 mph 26.5 mph N/A   Clear
4:53 PM 93.0 °F - 51.1 °F 24% 29.98 in 10.0 mi South 20.7 mph 26.5 mph N/A   Clear
5:53 PM 93.0 °F - 52.0 °F 25% 29.97 in 10.0 mi South 17.3 mph - N/A   Clear
6:53 PM 91.9 °F - 51.1 °F 25% 29.95 in 10.0 mi South 17.3 mph - N/A   Clear
7:53 PM 87.1 °F 85.9 °F 57.0 °F 36% 29.96 in 10.0 mi SSE 13.8 mph - N/A   Clear
8:53 PM 84.0 °F 83.3 °F 57.0 °F 40% 29.96 in 10.0 mi SSE 16.1 mph 24.2 mph N/A   Clear
9:53 PM 82.9 °F 82.4 °F 57.0 °F 41% 29.96 in 10.0 mi SSE 19.6 mph 26.5 mph N/A   Clear
10:53 PM 81.0 °F 81.0 °F 57.0 °F 44% 29.95 in 10.0 mi SSE 25.3 mph 36.8 mph N/A   Clear
11:53 PM 79.0 °F - 57.9 °F 48% 29.96 in 10.0 mi South 23.0 mph 31.1 mph N/A   Clear